Hourly Data Report for October 15, 2016

All times are specified in Local Standard Time (LST). Add 1 hour to adjust for Daylight Saving Time where and when it is observed.

CLYDE RIVER A
NUNAVUT

70°29'09.000" N
68°31'01.000" W
26.50 m
2400804
71090
YCY

Download Data

Hourly Data (October 2016)
Hourly Data Report for October 15, 2016
Temp Definition
°C
Dew Point Temp Definition
°C
Rel Hum Definition
%
Wind Dir Definition
10's deg

Wind Spd Definition
km/h
Visibility Definition
km
Stn Press Definition
kPa
Hmdx Definition


Wind Chill Definition


Weather Definition


TIME
00:00 Legend Double Dagger -7.3 -8.7 90 30 11 16.1 100.36   -12 LegendNANA
01:00 Legend Double Dagger -6.8 -7.6 94 28 9 16.1 100.34   -11 LegendNANA
02:00 Legend Double Dagger -6.7 -7.8 92 27 5 16.1 100.30   -9 LegendNANA
03:00 Legend Double Dagger -5.5 -6.8 91 29 5 16.1 100.29   -8 LegendNANA
04:00 Legend Double Dagger -5.9 -7.3 90 27 9 12.9 100.27   -10 Snow
05:00 Legend Double Dagger -6.2 -7.5 91 30 9 6.4 100.26   -10 Snow
06:00 Legend Double Dagger -6.5 -7.7 91 31 11 14.5 100.25   -11 Snow
07:00 Legend Double Dagger -6.0 -7.2 91 32 11 16.1 100.23   -11 LegendNANA
08:00 Legend Double Dagger -5.0 -6.4 90 33 8 16.1 100.24   -9 Snow
09:00 Legend Double Dagger -4.6 -6.1 89 30 11 16.1 100.24   -9 LegendNANA
10:00 Legend Double Dagger -4.0 -6.0 86 28 9 16.1 100.24   -8 LegendNANA
11:00 Legend Double Dagger -4.9 -7.2 84 30 13 16.1 100.26   -10 LegendNANA
12:00 Legend Double Dagger -6.9 -8.6 88 29 18 16.1 100.28   -14 LegendNANA
13:00 Legend Double Dagger -5.3 -7.6 84 28 13 16.1 100.31   -10 LegendNANA
14:00 Legend Double Dagger -8.2 -10.2 86 30 17 16.1 100.36   -15 LegendNANA
15:00 Legend Double Dagger -6.6 -8.9 84 25 5 16.1 100.43   -9 LegendNANA
16:00 Legend Double Dagger -5.8 -8.4 82 29 5 16.1 100.47   -8 LegendNANA
17:00 Legend Double Dagger -6.7 -8.7 86 LegendMM 4 16.1 100.50   -9 LegendNANA
18:00 Legend Double Dagger -7.2 -9.3 85 30 5 16.1 100.52   -10 LegendNANA
19:00 Legend Double Dagger -7.7 -9.4 88 28 5 16.1 100.55   -10 LegendNANA
20:00 Legend Double Dagger -10.0 -11.9 86 31 8 16.1 100.58   -14 LegendNANA
21:00 Legend Double Dagger -10.0 -12.0 85 29 9 16.1 100.60   -15 LegendNANA
22:00 Legend Double Dagger -9.9 -12.3 83   0 16.1 100.61     LegendNANA
23:00 Legend Double Dagger -10.4 -12.9 82   0 16.1 100.63     LegendNANA

Notes on Data Quality.

Legend

  • E = Estimated
  • M = Missing
  • NA = Not Available
  • ‡ = Partner data that is not subject to review by the National Climate Archives
Date modified: